Погода в Выборге

Погода в Выборге : погода сейчас, прогноз погоды и архив. Всё, что Вы хотите узнать о погоде в Выборге!

Хотите узнать прогноз погоды в Выборге? Тогда Вам сюда: Погода в Выборге

Поиск расширенной информации на нашем сайте:

Другие новости

Новости СМИ2

Главная страница сайта

Новости сайта

03.07.2017

Напоминаем, что на нашем специализированном сайте Метеоцентр.Азия вы можете получить высокодетализированные автоматические прогнозы погоды по пунктам России, СНГ и мира в авиационном формате (включающие направление и скорость ветра, видимость, явления погоды, количество и форму облачности, нижнюю и верхнюю границу облачности).


Погода в Выборге - сегодня

Время (UTC), дата Ветер
(°,м/с) 
Видим.   Явления Облачность Т
(°С)
Тd
(°С)
f(%) Тe
(°С)
Pmin
(гПа)
dP
(гПа)
Po
(мм)
O2
(г/м3)
Тmin Tmax R s Состояние
почвы
03 20.07.17 310 (СЗ) 20000 м    9/8 600 м кучево-дожд., средняя 
[Cb cap|Ac As]
+12.3 +11.4 94 +16  1011.1  0.1  757  290  +11.6    0.3     
06 20.07.17 300 (СЗ) 20000 м  {ливн. осадки}  9/8 600 м кучево-дожд., средняя 
[Cb cap|Ac As]
+14.2 +11.7 85 +18  1011.4  0.4  757  288  +11.6    0.5    влажная 
09 20.07.17 350 (С) 20000 м    9/8 480 м кучево-дожд., средняя, верхняя 
[Cb cap|Ac As|Ci fib]
+15.8 +10.5 71 +19  1011.7  0.3  758  287           
12 20.07.17 240 (ЮЗ) 20000 м    8/6 500 м кучево-дожд., средняя, верхняя 
[Cb cap|Ac trans|Ci fib]
+16.6 +11.3 71 +20  1011.6  0.1  758  286           
15 20.07.17 230 (ЮЗ) 20000 м    8/5 630 м кучево-дожд., средняя, верхняя 
[Cb cap|Ac trans|Ci fib]
+17.9 +11.3 65 +21  1011.5  0.1  758  284      0.5     
18 20.07.17 240 (ЮЗ) 20000 м  {ливн. осадки}  8/4 600 м кучево-дожд., средняя, верхняя 
[Cb cap|Ac trans|Ci fib]
+16.2 +12.6 79 +23  1012  0.5  758  286    +18.1     
21 20.07.17 020 (С) 10 км    8/0 средняя 
[Ac As]
+13.4 +12.7 96 +20  1012.6  0.6  758  289           
00 21.07.17 020 (С) 20000 м    8/0 средняя 
[Ac As]
+12.4 +11.4 94 +16  1013.1  0.5  759  290           
03 21.07.17 340 (С) 20000 м    8/0 средняя 
[Ac As]
+11.9 +10.8 93 +15  1013.7  0.6  759  291  +11.7       
06 21.07.17 320 (СЗ) 20000 м    6/0 средняя, верхняя 
[Ac trans|Ci fib]
+17.4 +11.9 70 +22  1014.4  0.7  760  286  +11.7        влажная 
09 21.07.17 220 (ЮЗ) 20000 м  в посл. час гроза  8/5 600 м кучево-дожд., средняя 
[Cb cap|Ac trans]
+18.5 +10.8 61 +21  1014.8  0.4  760  285           
12 21.07.17 300 (СЗ) 20000 м  {гроза}  8/5 600 м кучево-дожд., средняя, верхняя 
[Cb cap|Ac trans|Ci sp]
+17.9 +10.4 61 +19  1015.2  0.4  760  286           
15 21.07.17 090 (В) 20000 м    8/4 600 м кучево-дожд., средняя, верхняя 
[Cb cap|Ac trans|Ci fib]
+20.1 +9.5 50 +20  1015.4  0.2  760  284           
18 21.07.17 010 (С) 20000 м  в посл. час ливневой дождь  8/5 600 м кучево-дожд., средняя 
[Cb cap|Ac trans]
+16.7 +13.5 81 +24  1016.1  0.7  761  286    +21     
21 21.07.17 010 (С) 10 км    8/4 600 м кучево-дожд., средняя 
[Cb cap|Ac trans]
+13.4 +12.4 94 +18  1016.9  0.7  761  290           
00 22.07.17 360 (С) 20000 м    6/0 средняя 
[Ac lent]
+12.1 +10.9 92 +15  1017.4  0.5  762  292           
03 22.07.17 020 (С) 20000 м    9/3 600 м средняя 
[Cu med, cong|Ac lent]
+12.4 +11.8 96 +17  1017.7  0.3  762  291  +11.8       
06 22.07.17 050 (СВ) 20000 м    3/0 средняя, верхняя 
[Ac trans|Ci fib]
+16.7 +12.1 74 +22  1018.2  0.6  763  287  +11.8        влажная 
09 22.07.17 090 (В) 20000 м    8/8 660 м 
[Cu med, cong]
+19.9 +11.5 58 +24  1018  -0.3  762  284           
12 22.07.17 210 (ЮЗ) 10 км  гроза, ливневой дождь  10/10 630 м кучево-дожд. 
[Cb cap]
+15.4 +13.1 86 +22  1018.7  -0.3  763  288           
15 22.07.17 040 (СВ) 10 км  в посл. час ливневой дождь{гроза}  9/9 600 м кучево-дожд., средняя, верхняя 
[Cb cap|Ac As|Ci sp]
+14.8 +12.9 88 +21  1019.1  0.4  763  289         
18 22.07.17 030 (СВ) 20000 м  {гроза, ливн. осадки}  6/0 средняя, верхняя 
[Ac trans|Ci fib]
+16.5 +13.4 82 +23  1018.6  -0.4  763  287    +19.9     
21 22.07.17 340 (С) 10 км    3/0 средняя 
[Ac trans]
+12.1 +11.6 97 +16  1019  0.6  763  292           
00 23.07.17 330 (СЗ) 20000 м    3/0 средняя 
[Ac trans]
+11.8 +11.1 95 +15  1018.6  -0.3  763  293           
03 23.07.17 320 (СЗ) 10 км    ясно 
+11.4 +11 97 +14  1017.9  -0.7  762  293  +10.9         
Время (UTC), дата Ветер
(°,м/с) 
Видим.   Явления Облачность Т
(°С)
Тd
(°С)
f(%) Тe
(°С)
Pmin
(гПа)
dP
(гПа)
Po
(мм)
O2
(г/м3)
Тmin Tmax R s Состояние
почвы

Для получения пояснительной информации подведите курсор к названию столбца.

ПОГОДА в Выборге - архив

Всё, что Вы хотите узнать о погоде в Выборге - удобно и подробно!

Выберите нужную дату (начиная с 1 января 2015* года) и нажмите кнопку "Найти".
Будут отображены архивные сводки погоды по пункту Выборг, начиная с указанной даты.


Отображать данные в формате CSV (для использования в таблицах Excel)


Внимание! Наш архив погоды предназначен исключительно для личного некоммерческого использования в познавательных целях. Если Вам необходимы официальные справки о состоянии погоды (для производственных, юридических, коммерческих и т.п. целей), обращайтесь в органы Росгидромета.

*Примечание: данная дата относится к архиву по метеостанциям СССР (Россия, СНГ, Балтия).
Архив по метеостанциям Зарубежной Европы и Азии (кроме Китая) хранится 10 дней, по другим регионам земного шара (Китай, Африка, Америка, Австралия, Океания) - 1 день.

Выборг - район местоположения метеостанции


Название, широта, долгота, высота метеостанции:
Выборг 60.7°ш. 28.7°д. 13 м над ур. моря [Российская Федерация]

Дополнительная информация

В oтличие oт бoльшинства пoгoдных сайтoв мы публикуем пoдрoбную метеoинфoрмацию в детальнoм прoфессиoнальнoм фoрмате.

Характеристики температуры и влажнoсти вoздуха измеряются на высoте 2 м в тени вдали oт зданий и деревьев.
Скoрoсть ветра измеряется на высoте 10 м (на урoвне рoста челoвека скoрoсть ветра ниже в 1.5-2 раза). Если метеoстанция нахoдится в гoрoде или в лесу, тo скoрoсть ветра занижена на 2-4 м/с пo сравнению с oткрытым местoм. Скoрoсть ветра над акватoриями крупных рек и oзёр, а также на вершинах хoлмoв на 2-5 м/с выше, чем в oбычных услoвиях.
Атмoсфернoе давление в разных тoчках местнoсти мoжет значительнo oтличаться oт давления на метеoстанции, в зависимoсти oт услoвий рельефа (при пoдъёме на 10 м давление пoнижается примернo на 1 мм рт.ст.).